Location: Newark
(40.9833°N, 0.0333°W)
Time: 17:49:20
(UTC+00:00)

Transit 4A - Pass Details

Date: 30 October 2020
Orbit: 862 x 982 km, 66.8° (Epoch: 23 November)

Event Time Altitude Azimuth Distance (km) Brightness Sun altitude
Rises 22:48:44 0° 334° (NNW) 3,694 - -60.6°
Reaches altitude 10° 22:51:28 10° 340° (NNW) 2,739 - -60.9°
Maximum altitude 22:57:37 46° 53° (NE) 1,277 - -61.4°
Drops below altitude 10° 23:03:38 10° 126° (SE) 2,678 - -61.8°
Sets 23:06:15 0° 133° (SE) 3,604 - -62.0°
